Le nostre stazioni meteo in Italia

Pubblicità
Il mio iltempo24.it
Monte Settepani, Italia (16111): Temperatura & dewpoint: 15.02.2020 03:00:00 - 21.02.2020 03:00:00 (CET)Monte Settepani, Italia (16111): velocità del vento: 15.02.2020 03:00:00 - 21.02.2020 03:00:00 (CET)Monte Settepani, Italia (16111): direzione del vento: 15.02.2020 03:00:00 - 21.02.2020 03:00:00 (CET)Monte Settepani, Italia (16111): precipitazioni: 15.02.2020 03:00:00 - 21.02.2020 03:00:00 (CET)
Data & Tempo tt [°C] td [°C] ff [km/h] ff [kn] dd rr [mm]
21.02.2020 03:00:00 - - - - - -
21.02.2020 02:00:00 1,4 -1,0 9 5 NNO -
21.02.2020 01:00:00 0,3 0,3 11 6 ONO 0,0
21.02.2020 00:00:00 0,4 0,4 16 9 SSO -
20.02.2020 23:00:00 0,9 0,9 31 17 SSO -
20.02.2020 22:00:00 0,6 0,6 26 14 SSO -
20.02.2020 21:00:00 0,9 0,9 28 15 SSO -
20.02.2020 20:00:00 1,4 1,4 28 15 SSO -
20.02.2020 19:00:00 1,6 1,6 22 12 SSO 0,0
20.02.2020 18:00:00 2,0 2,0 21 11 SSO -
20.02.2020 17:00:00 2,1 2,1 18 10 S -
20.02.2020 16:00:00 2,3 2,3 13 7 S -
20.02.2020 15:00:00 3,7 3,7 15 8 S -
20.02.2020 14:00:00 5,2 4,0 13 7 S -
20.02.2020 13:00:00 5,8 4,1 13 7 S 0,0
20.02.2020 12:00:00 5,4 1,1 9 5 S -
20.02.2020 11:00:00 4,3 -1,4 5 3 S -
20.02.2020 10:00:00 3,8 -5,5 4 2 SSE -
20.02.2020 09:00:00 2,5 -7,3 9 5 S -
20.02.2020 08:00:00 2,2 -6,0 2 1 S -
20.02.2020 07:00:00 1,7 -8,3 5 3 S 0,0
20.02.2020 06:00:00 2,2 -9,2 2 1 N -
20.02.2020 05:00:00 2,1 -8,7 4 2 E -
20.02.2020 04:00:00 1,5 -8,4 13 7 NNE -
20.02.2020 03:00:00 1,5 -6,0 16 9 N -
20.02.2020 02:00:00 1,7 -4,5 18 10 N -
20.02.2020 01:00:00 1,8 -2,8 21 11 N 0,0
20.02.2020 00:00:00 2,0 -2,8 11 6 N -
19.02.2020 23:00:00 2,9 -4,7 13 7 N -
19.02.2020 22:00:00 3,0 -5,0 15 8 N -
19.02.2020 21:00:00 3,8 -6,3 18 10 N -
19.02.2020 20:00:00 4,2 -7,7 16 9 N -
19.02.2020 19:00:00 4,8 -7,5 24 13 N 0,0
19.02.2020 18:00:00 5,8 -6,9 16 9 ENE -
19.02.2020 17:00:00 7,4 -6,5 5 3 SO -
19.02.2020 16:00:00 7,7 -5,2 8 4 S -
19.02.2020 15:00:00 8,5 -3,8 8 4 SO -
19.02.2020 14:00:00 8,5 -3,8 5 3 ESE -
19.02.2020 13:00:00 7,5 -4,4 11 6 ONO 0,0
19.02.2020 12:00:00 6,5 -2,0 9 5 O -
19.02.2020 11:00:00 4,5 -1,4 5 3 NE -
19.02.2020 10:00:00 2,4 -1,5 9 5 NNO -
19.02.2020 09:00:00 1,3 -1,6 11 6 N -
19.02.2020 08:00:00 2,1 0,3 11 6 NO -
19.02.2020 07:00:00 2,1 0,6 15 8 NO 0,0
19.02.2020 06:00:00 2,2 1,3 4 2 ONO -
19.02.2020 05:00:00 3,2 2,9 0 0 N -
19.02.2020 04:00:00 2,6 2,5 4 2 N -
19.02.2020 03:00:00 2,6 2,6 5 3 N -
19.02.2020 02:00:00 3,8 3,8 2 1 NE -
19.02.2020 01:00:00 3,6 3,6 4 2 NNE 0,0
19.02.2020 00:00:00 3,8 3,8 2 1 NE -
18.02.2020 23:00:00 4,2 4,2 2 1 N -
18.02.2020 22:00:00 4,3 3,9 9 5 ONO -
18.02.2020 21:00:00 3,6 0,6 4 2 O -
18.02.2020 20:00:00 4,4 -0,5 4 2 SO -
18.02.2020 19:00:00 4,3 -0,8 5 3 S 0,0
18.02.2020 18:00:00 4,6 3,1 4 2 SSO -
18.02.2020 17:00:00 4,2 4,2 4 2 SSE -
18.02.2020 16:00:00 5,0 5,0 8 4 S -
18.02.2020 15:00:00 5,5 5,5 2 1 SE -
18.02.2020 14:00:00 6,4 0,6 5 3 NE -
18.02.2020 13:00:00 6,4 0,0 8 4 NNE 0,0
18.02.2020 12:00:00 6,2 0,7 11 6 N -
18.02.2020 11:00:00 6,8 3,9 8 4 N -
18.02.2020 10:00:00 4,2 1,4 22 12 N -
18.02.2020 09:00:00 3,1 0,5 31 17 N -
18.02.2020 08:00:00 3,1 2,2 29 16 N -
18.02.2020 07:00:00 2,8 2,8 31 17 N 0,0
18.02.2020 06:00:00 2,2 2,2 26 14 N -
18.02.2020 05:00:00 2,4 2,4 16 9 N -
18.02.2020 04:00:00 3,9 3,9 8 4 N -
18.02.2020 03:00:00 4,0 4,0 5 3 NNE -
18.02.2020 02:00:00 4,2 4,2 2 1 NNE -
18.02.2020 01:00:00 4,1 4,1 4 2 NE 0,0
18.02.2020 00:00:00 4,4 4,4 0 0 N -
17.02.2020 23:00:00 4,6 4,6 4 2 S -
17.02.2020 22:00:00 4,5 4,5 13 7 SSO -
17.02.2020 21:00:00 4,5 4,5 11 6 SSO -
17.02.2020 20:00:00 4,4 4,4 9 5 SSO -
17.02.2020 19:00:00 4,4 4,4 4 2 S 0,0
17.02.2020 18:00:00 - - 5 3 S -
17.02.2020 17:00:00 4,3 4,3 5 3 S -
17.02.2020 16:00:00 4,3 4,3 11 6 S -
17.02.2020 15:00:00 4,1 4,1 9 5 S -
17.02.2020 14:00:00 4,0 4,0 11 6 S -
17.02.2020 13:00:00 4,0 4,0 11 6 S 0,0
17.02.2020 12:00:00 - - - - - -
17.02.2020 11:00:00 3,3 3,3 15 8 SSO -
17.02.2020 10:00:00 3,1 3,1 9 5 SSO -
17.02.2020 09:00:00 3,0 3,0 4 2 SSO -
17.02.2020 08:00:00 3,0 3,0 4 2 SO -
17.02.2020 07:00:00 3,1 3,1 8 4 SSO 0,0
17.02.2020 06:00:00 3,2 3,2 5 3 SSO -
17.02.2020 05:00:00 3,3 3,3 2 1 SO -
17.02.2020 04:00:00 3,4 3,4 8 4 S -
17.02.2020 03:00:00 3,6 3,6 5 3 S -
17.02.2020 02:00:00 3,6 3,6 5 3 S -
17.02.2020 01:00:00 3,7 3,7 4 2 S 0,0
17.02.2020 00:00:00 3,7 3,7 5 3 S -
16.02.2020 23:00:00 3,5 3,5 8 4 SSO -
16.02.2020 22:00:00 3,0 3,0 4 2 SSO -
16.02.2020 21:00:00 3,3 3,3 0 0 N -
16.02.2020 20:00:00 3,6 3,6 2 1 S -
16.02.2020 19:00:00 3,5 3,5 8 4 S 0,0
16.02.2020 18:00:00 3,5 3,5 9 5 SSO -
16.02.2020 17:00:00 3,4 3,4 13 7 SSO -
16.02.2020 16:00:00 3,3 3,3 11 6 SSO -
16.02.2020 15:00:00 3,1 3,1 9 5 S -
16.02.2020 14:00:00 3,2 3,2 11 6 S -
16.02.2020 13:00:00 3,2 3,2 9 5 S 0,0
16.02.2020 12:00:00 2,8 2,8 8 4 SSO -
16.02.2020 11:00:00 2,4 2,4 8 4 SSO -
16.02.2020 10:00:00 2,1 2,1 11 6 S -
16.02.2020 09:00:00 1,6 1,6 4 2 O -
16.02.2020 08:00:00 0,8 0,8 13 7 SSO -
16.02.2020 07:00:00 0,9 0,9 16 9 SSO 0,0
16.02.2020 06:00:00 0,8 0,8 18 10 SSO -
16.02.2020 05:00:00 0,8 0,8 11 6 SSO -
16.02.2020 04:00:00 3,5 -0,8 5 3 SO -
16.02.2020 03:00:00 3,1 -1,5 9 5 SO -
16.02.2020 02:00:00 3,2 -2,2 21 11 SO -
16.02.2020 01:00:00 3,1 -0,8 13 7 SO 0,0
16.02.2020 00:00:00 3,0 1,7 13 7 SSO -
15.02.2020 23:00:00 3,3 2,9 4 2 S -
15.02.2020 22:00:00 3,1 1,9 8 4 ONO -
15.02.2020 21:00:00 2,9 2,9 5 3 OSO -
15.02.2020 20:00:00 3,2 3,2 11 6 S -
15.02.2020 19:00:00 3,6 3,6 5 3 O 0,0
15.02.2020 18:00:00 4,9 4,0 8 4 SSO -
15.02.2020 17:00:00 6,3 4,8 11 6 SSO -
15.02.2020 16:00:00 5,9 4,2 9 5 S -
15.02.2020 15:00:00 8,4 3,6 11 6 SSO -
15.02.2020 14:00:00 8,8 2,3 11 6 SSO -
15.02.2020 13:00:00 8,7 3,3 9 5 SSO 0,0
15.02.2020 12:00:00 8,5 1,1 8 4 SSO -
15.02.2020 11:00:00 7,8 -1,8 9 5 S -
15.02.2020 10:00:00 7,2 -2,9 5 3 SSO -
15.02.2020 09:00:00 6,0 -4,6 4 2 SSO -
15.02.2020 08:00:00 4,4 -5,8 8 4 SSO -
15.02.2020 07:00:00 4,5 -6,0 8 4 SSO 0,0
15.02.2020 06:00:00 4,6 -6,2 11 6 SSO -
15.02.2020 05:00:00 4,7 -5,5 8 4 SSO -
15.02.2020 04:00:00 4,7 -4,7 13 7 SSO -
15.02.2020 03:00:00 4,9 -5,0 9 5 SSO -

tt = Temperatura
td = dewpoint
ff = velocità del vento
dd = direzione del vento
rr = precipitazioni

Stazioni seguenti

WeatherPro
AMSI
MeteoEarth